TimeADT,TemperatureF,Dew PointF,Humidity,Sea Level PressureIn,VisibilityMPH,Wind Direction,Wind SpeedMPH,Gust SpeedMPH,PrecipitationIn,Events,Conditions,WindDirDegrees,DateUTC
12:00 AM,57.2,48.2,72,30.13,15.0,WSW,15.0,25.3,N/A,,Overcast,250,2013-05-08 03:00:00
1:00 AM,55.4,46.4,72,30.13,15.0,WSW,13.8,-,N/A,,Mostly Cloudy,240,2013-05-08 04:00:00
2:00 AM,53.6,46.4,77,30.14,15.0,WSW,9.2,-,N/A,,Scattered Clouds,240,2013-05-08 05:00:00
3:00 AM,51,45,74,30.16,15,SW,2.3,,,,Clear,220,2013-05-08 06:00:00
3:00 AM,51.8,44.6,76,30.16,15.0,SW,3.5,-,N/A,,Partly Cloudy,230,2013-05-08 06:00:00
4:00 AM,50.0,46.4,87,30.17,15.0,SW,4.6,-,N/A,,Clear,220,2013-05-08 07:00:00
5:00 AM,46.4,46.4,100,30.19,15.0,Calm,Calm,-,N/A,,Clear,0,2013-05-08 08:00:00
6:00 AM,42.8,42.8,100,30.22,15.0,Calm,Calm,-,N/A,,Partly Cloudy,0,2013-05-08 09:00:00
7:00 AM,46.4,44.6,93,30.25,15.0,North,3.5,-,N/A,,Partly Cloudy,350,2013-05-08 10:00:00
8:00 AM,50.0,44.6,82,30.27,15.0,East,3.5,-,N/A,,Partly Cloudy,80,2013-05-08 11:00:00
9:00 AM,57,48,64,30.28,15,SE,2.3,,,,Clear,130,2013-05-08 12:00:00
9:00 AM,57.2,48.2,72,30.28,15.0,SSE,4.6,-,N/A,,Partly Cloudy,150,2013-05-08 12:00:00
10:00 AM,60.8,50.0,68,30.29,15.0,SSE,5.8,-,N/A,,Partly Cloudy,160,2013-05-08 13:00:00
11:00 AM,60.8,50.0,68,30.30,15.0,South,6.9,-,N/A,,Clear,190,2013-05-08 14:00:00
12:00 PM,64.4,50.0,59,30.30,15.0,ESE,3.5,-,N/A,,Clear,120,2013-05-08 15:00:00
1:00 PM,68.0,51.8,56,30.30,15.0,SSW,4.6,-,N/A,,Partly Cloudy,210,2013-05-08 16:00:00
2:00 PM,71.6,55.4,57,30.28,15.0,SSE,8.1,-,N/A,,Partly Cloudy,150,2013-05-08 17:00:00
3:00 PM,73,53,40,30.27,15,SSE,4.6,,,,Scattered Clouds,150,2013-05-08 18:00:00
3:00 PM,73.4,53.6,50,30.27,15.0,SE,5.8,-,N/A,,Partly Cloudy,140,2013-05-08 18:00:00
4:00 PM,75.2,53.6,47,30.25,15.0,SSW,11.5,-,N/A,,Partly Cloudy,200,2013-05-08 19:00:00
5:00 PM,75.2,53.6,47,30.24,15.0,South,10.4,-,N/A,,Partly Cloudy,180,2013-05-08 20:00:00
6:00 PM,73.4,57.2,57,30.23,15.0,SSE,8.1,-,N/A,,Partly Cloudy,150,2013-05-08 21:00:00
7:00 PM,68.0,53.6,60,30.23,15.0,SSE,8.1,-,N/A,,Partly Cloudy,150,2013-05-08 22:00:00
8:00 PM,66.2,51.8,60,30.23,15.0,SE,10.4,-,N/A,,Scattered Clouds,140,2013-05-08 23:00:00
9:00 PM,61,50,57,30.23,15,SE,5.8,,,,Scattered Clouds,130,2013-05-09 00:00:00
9:00 PM,60.8,50.0,68,30.23,15.0,SE,5.8,-,N/A,,Scattered Clouds,130,2013-05-09 00:00:00
10:00 PM,60.8,50.0,68,30.24,15.0,South,4.6,-,N/A,,Scattered Clouds,190,2013-05-09 01:00:00
11:00 PM,55.4,50.0,82,30.25,15.0,SSW,9.2,-,N/A,,Clear,200,2013-05-09 02:00:00